Time,TemperatureF,DewpointF,PressureIn,WindDirection,WindDirectionDegrees,WindSpeedMPH,WindSpeedGustMPH,Humidity,HourlyPrecipIn,Conditions,Clouds,dailyrainin,SoftwareType,DateUTC
2013-05-01 00:02:00,57.0,57.0,30.12,North,8,7.0,-999.0,100,-99.99,,,0.00,weatherlink.com 1.10,2013-04-30 21:02:00,
2013-05-01 00:17:00,56.7,57.0,30.12,NNE,25,6.0,-999.0,100,-99.99,,,0.00,weatherlink.com 1.10,2013-04-30 21:17:00,
2013-05-01 00:32:00,56.6,57.0,30.12,NNE,27,7.0,-999.0,100,-99.99,,,0.00,weatherlink.com 1.10,2013-04-30 21:32:00,
2013-05-01 00:47:00,56.5,57.0,30.12,NNE,31,5.0,-999.0,100,-99.99,,,0.00,weatherlink.com 1.10,2013-04-30 21:47:00,
2013-05-01 01:02:00,56.3,56.0,30.11,North,1,1.0,-999.0,100,-99.99,,,0.00,weatherlink.com 1.10,2013-04-30 22:02:00,
2013-05-01 01:17:00,56.3,56.0,30.11,NNE,30,5.0,-999.0,100,-99.99,,,0.00,weatherlink.com 1.10,2013-04-30 22:17:00,
2013-05-01 01:32:00,56.3,56.0,30.11,NNE,21,6.0,-999.0,100,-99.99,,,0.00,weatherlink.com 1.10,2013-04-30 22:32:00,
2013-05-01 01:47:00,56.3,56.0,30.11,North,8,6.0,-999.0,100,-99.99,,,0.00,weatherlink.com 1.10,2013-04-30 22:47:00,
2013-05-01 02:02:00,56.3,56.0,30.11,NNE,30,5.0,-999.0,100,-99.99,,,0.00,weatherlink.com 1.10,2013-04-30 23:02:00,
2013-05-01 02:17:00,56.3,56.0,30.10,NNE,31,11.0,-999.0,100,-99.99,,,0.00,weatherlink.com 1.10,2013-04-30 23:17:00,
2013-05-01 02:32:00,56.3,56.0,30.10,NNE,14,10.0,-999.0,100,-99.99,,,0.00,weatherlink.com 1.10,2013-04-30 23:32:00,
2013-05-01 02:47:00,56.3,56.0,30.10,North,8,9.0,-999.0,100,-99.99,,,0.00,weatherlink.com 1.10,2013-04-30 23:47:00,
2013-05-01 03:02:00,56.3,56.0,30.10,NNE,21,4.0,-999.0,100,-99.99,,,0.00,weatherlink.com 1.10,2013-05-01 00:02:00,
2013-05-01 03:17:00,56.3,56.0,30.10,North,8,5.0,-999.0,100,-99.99,,,0.00,weatherlink.com 1.10,2013-05-01 00:17:00,
2013-05-01 03:32:00,56.2,56.0,30.09,NNE,27,6.0,-999.0,100,-99.99,,,0.00,weatherlink.com 1.10,2013-05-01 00:32:00,
2013-05-01 03:47:00,56.2,56.0,30.10,North,6,0.0,-999.0,100,-99.99,,,0.00,weatherlink.com 1.10,2013-05-01 00:47:00,
2013-05-01 04:02:00,56.2,56.0,30.10,NNE,21,5.0,-999.0,100,-99.99,,,0.00,weatherlink.com 1.10,2013-05-01 01:02:00,
2013-05-01 04:17:00,56.0,56.0,30.09,NNE,21,7.0,-999.0,100,-99.99,,,0.00,weatherlink.com 1.10,2013-05-01 01:17:00,
2013-05-01 04:32:00,56.0,56.0,30.09,NE,34,7.0,-999.0,100,-99.99,,,0.00,weatherlink.com 1.10,2013-05-01 01:32:00,
2013-05-01 04:47:00,56.0,56.0,30.09,NNE,24,6.0,-999.0,100,-99.99,,,0.00,weatherlink.com 1.10,2013-05-01 01:47:00,
2013-05-01 05:02:00,55.9,56.0,30.09,NNE,23,7.0,-999.0,100,-99.99,,,0.00,weatherlink.com 1.10,2013-05-01 02:02:00,
2013-05-01 05:18:00,55.9,56.0,30.09,NNE,16,6.0,-999.0,100,-99.99,,,0.00,weatherlink.com 1.10,2013-05-01 02:18:00,
2013-05-01 05:33:00,55.9,56.0,30.09,NNE,17,10.0,-999.0,100,-99.99,,,0.00,weatherlink.com 1.10,2013-05-01 02:33:00,
2013-05-01 05:48:00,55.9,56.0,30.09,NNE,31,7.0,-999.0,100,-99.99,,,0.00,weatherlink.com 1.10,2013-05-01 02:48:00,
2013-05-01 06:03:00,55.9,56.0,30.09,NNE,20,2.0,-999.0,100,-99.99,,,0.00,weatherlink.com 1.10,2013-05-01 03:03:00,
2013-05-01 06:18:00,56.0,56.0,30.10,NNE,30,5.0,-999.0,100,-99.99,,,0.00,weatherlink.com 1.10,2013-05-01 03:18:00,
2013-05-01 06:33:00,55.9,56.0,30.10,NE,42,1.0,-999.0,100,-99.99,,,0.00,weatherlink.com 1.10,2013-05-01 03:33:00,
2013-05-01 06:48:00,55.9,56.0,30.10,North,11,6.0,-999.0,100,-99.99,,,0.00,weatherlink.com 1.10,2013-05-01 03:48:00,
2013-05-01 07:03:00,55.9,56.0,30.10,NNE,13,4.0,-999.0,100,-99.99,,,0.00,weatherlink.com 1.10,2013-05-01 04:03:00,
2013-05-01 07:18:00,55.9,56.0,30.10,North,1,7.0,-999.0,100,-99.99,,,0.00,weatherlink.com 1.10,2013-05-01 04:18:00,
2013-05-01 07:33:00,56.3,56.0,30.10,North,0,5.0,-999.0,100,-99.99,,,0.00,weatherlink.com 1.10,2013-05-01 04:33:00,
2013-05-01 07:48:00,56.7,57.0,30.10,North,8,7.0,-999.0,100,-99.99,,,0.00,weatherlink.com 1.10,2013-05-01 04:48:00,
2013-05-01 08:03:00,57.3,57.0,30.10,NNE,18,11.0,-999.0,100,-99.99,,,0.00,weatherlink.com 1.10,2013-05-01 05:03:00,
2013-05-01 08:18:00,58.1,58.0,30.10,North,8,2.0,-999.0,100,-99.99,,,0.00,weatherlink.com 1.10,2013-05-01 05:18:00,
2013-05-01 08:33:00,59.6,60.0,30.10,North,0,0.0,-999.0,100,-99.99,,,0.00,weatherlink.com 1.10,2013-05-01 05:33:00,
2013-05-01 08:48:00,60.2,60.0,30.10,NNE,28,2.0,-999.0,100,-99.99,,,0.00,weatherlink.com 1.10,2013-05-01 05:48:00,
2013-05-01 09:03:00,60.7,61.0,30.10,North,1,3.0,-999.0,100,-99.99,,,0.00,weatherlink.com 1.10,2013-05-01 06:03:00,
2013-05-01 09:18:00,61.6,62.0,30.10,NNE,14,6.0,-999.0,100,-99.99,,,0.00,weatherlink.com 1.10,2013-05-01 06:18:00,
2013-05-01 09:33:00,62.1,62.0,30.09,North,10,2.0,-999.0,100,-99.99,,,0.00,weatherlink.com 1.10,2013-05-01 06:33:00,
2013-05-01 09:48:00,62.9,63.0,30.10,NE,40,5.0,-999.0,100,-99.99,,,0.00,weatherlink.com 1.10,2013-05-01 06:48:00,
2013-05-01 10:03:00,63.7,62.0,30.10,NNW,330,5.0,-999.0,95,-99.99,,,0.00,weatherlink.com 1.10,2013-05-01 07:03:00,
2013-05-01 10:18:00,64.2,62.0,30.10,NNE,21,5.0,-999.0,91,-99.99,,,0.00,weatherlink.com 1.10,2013-05-01 07:18:00,
2013-05-01 10:33:00,64.2,60.0,30.09,NNE,20,0.0,-999.0,87,-99.99,,,0.00,weatherlink.com 1.10,2013-05-01 07:33:00,
2013-05-01 10:48:00,65.0,61.0,30.09,North,357,4.0,-999.0,86,-99.99,,,0.00,weatherlink.com 1.10,2013-05-01 07:48:00,
2013-05-01 11:03:00,65.5,60.0,30.10,NE,34,9.0,-999.0,83,-99.99,,,0.00,weatherlink.com 1.10,2013-05-01 08:03:00,
2013-05-01 11:18:00,65.6,60.0,30.09,NNE,25,7.0,-999.0,82,-99.99,,,0.00,weatherlink.com 1.10,2013-05-01 08:18:00,
2013-05-01 11:33:00,65.6,60.0,30.09,NE,38,10.0,-999.0,81,-99.99,,,0.00,weatherlink.com 1.10,2013-05-01 08:33:00,
2013-05-01 11:49:00,66.3,60.0,30.09,NE,40,6.0,-999.0,80,-99.99,,,0.00,weatherlink.com 1.10,2013-05-01 08:49:00,
2013-05-01 12:04:00,66.3,60.0,30.09,NE,38,8.0,-999.0,80,-99.99,,,0.00,weatherlink.com 1.10,2013-05-01 09:04:00,
2013-05-01 12:19:00,66.3,60.0,30.09,North,10,5.0,-999.0,80,-99.99,,,0.00,weatherlink.com 1.10,2013-05-01 09:19:00,
2013-05-01 12:34:00,66.8,60.0,30.08,North,1,8.0,-999.0,79,-99.99,,,0.00,weatherlink.com 1.10,2013-05-01 09:34:00,
2013-05-01 12:49:00,66.6,60.0,30.08,NE,35,9.0,-999.0,79,-99.99,,,0.00,weatherlink.com 1.10,2013-05-01 09:49:00,
2013-05-01 13:04:00,66.6,60.0,30.08,NNE,27,7.0,-999.0,79,-99.99,,,0.00,weatherlink.com 1.10,2013-05-01 10:04:00,
2013-05-01 13:19:00,67.1,60.0,30.08,NE,38,4.0,-999.0,79,-99.99,,,0.00,weatherlink.com 1.10,2013-05-01 10:19:00,
2013-05-01 13:34:00,68.1,61.0,30.07,North,0,3.0,-999.0,77,-99.99,,,0.00,weatherlink.com 1.10,2013-05-01 10:34:00,
2013-05-01 13:49:00,68.6,60.0,30.07,North,6,8.0,-999.0,75,-99.99,,,0.00,weatherlink.com 1.10,2013-05-01 10:49:00,
2013-05-01 14:04:00,68.8,69.0,30.07,NE,48,5.0,-999.0,100,-99.99,,,0.00,weatherlink.com 1.10,2013-05-01 11:04:00,
2013-05-01 14:19:00,69.1,69.0,30.07,NW,309,2.0,-999.0,100,-99.99,,,0.00,weatherlink.com 1.10,2013-05-01 11:19:00,
2013-05-01 14:34:00,68.1,68.0,30.06,NE,45,7.0,-999.0,100,-99.99,,,0.00,weatherlink.com 1.10,2013-05-01 11:34:00,
2013-05-01 14:49:00,67.1,67.0,30.06,NE,40,8.0,-999.0,100,-99.99,,,0.00,weatherlink.com 1.10,2013-05-01 11:49:00,
2013-05-01 15:04:00,66.9,67.0,30.05,NNE,20,8.0,-999.0,100,-99.99,,,0.00,weatherlink.com 1.10,2013-05-01 12:04:00,
2013-05-01 15:19:00,67.3,67.0,30.05,North,8,8.0,-999.0,100,-99.99,,,0.00,weatherlink.com 1.10,2013-05-01 12:19:00,
2013-05-01 15:34:00,66.4,66.0,30.05,North,7,11.0,-999.0,100,-99.99,,,0.00,weatherlink.com 1.10,2013-05-01 12:34:00,
2013-05-01 15:49:00,66.6,67.0,30.04,NNE,24,7.0,-999.0,100,-99.99,,,0.00,weatherlink.com 1.10,2013-05-01 12:49:00,
2013-05-01 16:04:00,66.3,66.0,30.04,NNE,17,11.0,-999.0,100,-99.99,,,0.00,weatherlink.com 1.10,2013-05-01 13:04:00,
2013-05-01 16:19:00,65.5,66.0,30.04,NNE,20,4.0,-999.0,100,-99.99,,,0.00,weatherlink.com 1.10,2013-05-01 13:19:00,
2013-05-01 16:34:00,65.0,65.0,30.04,NNE,23,5.0,-999.0,100,-99.99,,,0.00,weatherlink.com 1.10,2013-05-01 13:34:00,
2013-05-01 16:49:00,63.9,64.0,30.04,NE,45,13.0,-999.0,100,-99.99,,,0.00,weatherlink.com 1.10,2013-05-01 13:49:00,
2013-05-01 17:04:00,62.9,63.0,30.04,NNE,25,14.0,-999.0,100,-99.99,,,0.00,weatherlink.com 1.10,2013-05-01 14:04:00,
2013-05-01 17:19:00,62.0,62.0,30.04,NE,41,10.0,-999.0,100,-99.99,,,0.00,weatherlink.com 1.10,2013-05-01 14:19:00,
2013-05-01 17:34:00,61.0,61.0,30.03,NNE,30,11.0,-999.0,100,-99.99,,,0.00,weatherlink.com 1.10,2013-05-01 14:34:00,
2013-05-01 17:49:00,60.2,60.0,30.03,NE,40,12.0,-999.0,100,-99.99,,,0.00,weatherlink.com 1.10,2013-05-01 14:49:00,
2013-05-01 18:04:00,59.6,60.0,30.03,NNE,17,13.0,-999.0,100,-99.99,,,0.00,weatherlink.com 1.10,2013-05-01 15:04:00,
2013-05-01 18:19:00,59.2,59.0,30.03,North,6,11.0,-999.0,100,-99.99,,,0.00,weatherlink.com 1.10,2013-05-01 15:19:00,
2013-05-01 18:34:00,58.7,59.0,30.03,North,11,7.0,-999.0,100,-99.99,,,0.00,weatherlink.com 1.10,2013-05-01 15:34:00,
2013-05-01 18:49:00,58.3,58.0,30.03,NNE,24,7.0,-999.0,100,-99.99,,,0.00,weatherlink.com 1.10,2013-05-01 15:49:00,
2013-05-01 19:04:00,58.1,58.0,30.03,NE,48,11.0,-999.0,100,-99.99,,,0.00,weatherlink.com 1.10,2013-05-01 16:04:00,
2013-05-01 19:19:00,57.8,58.0,30.03,NE,42,6.0,-999.0,100,-99.99,,,0.00,weatherlink.com 1.10,2013-05-01 16:19:00,
2013-05-01 19:34:00,57.6,58.0,30.03,NNE,18,11.0,-999.0,100,-99.99,,,0.00,weatherlink.com 1.10,2013-05-01 16:34:00,
2013-05-01 19:49:00,57.3,57.0,30.04,NE,40,2.0,-999.0,100,-99.99,,,0.00,weatherlink.com 1.10,2013-05-01 16:49:00,
2013-05-01 20:04:00,57.0,57.0,30.03,NNE,24,12.0,-999.0,100,-99.99,,,0.00,weatherlink.com 1.10,2013-05-01 17:04:00,
2013-05-01 20:19:00,56.9,57.0,30.03,North,10,5.0,-999.0,100,-99.99,,,0.00,weatherlink.com 1.10,2013-05-01 17:19:00,
2013-05-01 20:34:00,56.7,57.0,30.04,North,353,10.0,-999.0,100,-99.99,,,0.00,weatherlink.com 1.10,2013-05-01 17:34:00,
2013-05-01 20:49:00,56.2,56.0,30.04,NNE,20,13.0,-999.0,100,-99.99,,,0.00,weatherlink.com 1.10,2013-05-01 17:49:00,
2013-05-01 21:04:00,56.0,56.0,30.04,NNE,28,10.0,-999.0,100,-99.99,,,0.00,weatherlink.com 1.10,2013-05-01 18:04:00,
2013-05-01 21:19:00,55.9,56.0,30.05,NNE,31,10.0,-999.0,100,-99.99,,,0.00,weatherlink.com 1.10,2013-05-01 18:19:00,
2013-05-01 21:35:00,55.6,56.0,30.05,NE,40,2.0,-999.0,100,-99.99,,,0.00,weatherlink.com 1.10,2013-05-01 18:35:00,
2013-05-01 21:50:00,55.6,56.0,30.05,NNE,23,8.0,-999.0,100,-99.99,,,0.00,weatherlink.com 1.10,2013-05-01 18:50:00,
2013-05-01 22:05:00,55.3,55.0,30.05,NNE,20,2.0,-999.0,100,-99.99,,,0.00,weatherlink.com 1.10,2013-05-01 19:05:00,
2013-05-01 22:20:00,55.3,55.0,30.05,NNE,24,11.0,-999.0,100,-99.99,,,0.00,weatherlink.com 1.10,2013-05-01 19:20:00,
2013-05-01 22:35:00,55.3,55.0,30.05,NNE,27,7.0,-999.0,100,-99.99,,,0.00,weatherlink.com 1.10,2013-05-01 19:35:00,
2013-05-01 22:50:00,55.3,55.0,30.05,NNE,21,8.0,-999.0,100,-99.99,,,0.00,weatherlink.com 1.10,2013-05-01 19:50:00,
2013-05-01 23:05:00,55.0,55.0,30.05,NNE,20,4.0,-999.0,100,-99.99,,,0.00,weatherlink.com 1.10,2013-05-01 20:05:00,
2013-05-01 23:20:00,54.8,55.0,30.05,North,11,12.0,-999.0,100,-99.99,,,0.00,weatherlink.com 1.10,2013-05-01 20:20:00,
2013-05-01 23:35:00,54.4,54.0,30.05,NNE,28,18.0,-999.0,100,-99.99,,,0.00,weatherlink.com 1.10,2013-05-01 20:35:00,
2013-05-01 23:50:00,54.4,54.0,30.05,North,349,5.0,-999.0,100,-99.99,,,0.00,weatherlink.com 1.10,2013-05-01 20:50:00,